Total_Precipitation_Accumulation
2.22 2.52 2.52 2.64 2.30 2.27 2.33 2.25 2.05 1.95 1.76 1.58 1.50 1.47 1.52 1.44 1.51 1.71 1.71 1.68 1.80 2.14 2.60 2.84 2.82 2.80 2.73 2.62 2.47 2.33 2.14 2.01 1.88 1.72 1.53 1.32 1.23 1.22 1.26 1.30 1.30 1.28 1.31
2.68 3.02 3.12 3.06 2.81 2.82 2.98 3.00 2.80 2.57 2.33 2.18 1.96 1.91 1.86 1.86 1.96 1.98 1.93 1.86 1.75 1.83 2.29 2.72 3.02 3.19 3.16 2.88 2.62 2.51 2.44 2.30 2.13 1.94 1.78 1.63 1.48 1.41 1.39 1.38 1.37 1.33 1.28
3.21 3.34 3.59 3.52 3.30 3.28 3.32 3.27 3.45 3.42 2.94 2.58 2.38 2.32 2.31 2.23 2.29 2.34 2.37 2.27 2.01 1.90 2.05 2.37 2.67 2.88 3.00 3.00 2.87 2.72 2.72 2.48 2.26 2.07 1.94 1.82 1.74 1.65 1.55 1.48 1.48 1.47 1.40
3.55 3.60 3.60 3.63 3.53 3.49 3.78 3.89 3.83 3.76 3.50 3.13 2.88 2.63 2.51 2.56 2.38 2.33 2.36 2.34 2.35 2.04 1.86 1.89 2.07 2.29 2.60 2.93 3.11 3.13 3.00 2.79 2.53 2.32 2.23 2.10 1.94 1.79 1.64 1.55 1.55 1.55 1.51
4.01 4.06 4.02 4.08 3.94 3.99 3.93 3.81 4.12 4.05 3.88 3.52 3.03 2.77 2.52 2.53 2.41 2.15 2.14 2.20 2.23 2.12 2.01 1.83 1.90 2.08 2.41 2.78 3.08 3.28 3.24 3.09 2.89 2.68 2.58 2.46 2.27 2.04 1.84 1.72 1.66 1.64 1.65
4.74 4.71 4.63 4.63 4.48 4.37 4.23 4.16 4.19 3.96 3.81 3.57 3.03 2.78 2.50 2.21 2.15 2.13 1.93 1.97 1.98 1.86 1.92 1.92 2.00 1.88 2.10 2.41 2.71 2.98 3.08 3.14 3.09 2.84 2.63 2.61 2.53 2.31 2.09 1.96 1.87 1.79 1.80
5.17 5.01 4.83 4.91 4.75 4.53 4.30 4.19 4.15 4.03 3.67 3.55 3.51 3.12 2.56 2.18 2.02 1.86 1.85 1.85 1.74 1.75 1.96 1.96 1.93 1.86 1.80 2.02 2.16 2.38 2.69 2.94 3.15 3.12 2.99 2.86 2.62 2.38 2.24 2.14 2.10 2.03 1.94
5.43 5.27 5.24 5.09 4.84 4.67 4.42 4.23 4.15 4.03 3.69 3.62 3.63 3.57 2.89 2.37 1.86 1.49 1.58 1.61 1.57 1.64 1.70 1.66 1.64 1.70 1.74 1.82 1.78 1.99 2.30 2.58 2.89 3.07 3.11 2.87 2.70 2.48 2.40 2.37 2.33 2.28 2.21
5.70 5.54 5.49 5.23 4.99 4.72 4.37 4.11 3.96 3.84 3.71 3.67 3.56 3.67 3.16 2.54 2.04 1.65 1.46 1.36 1.41 1.57 1.58 1.59 1.54 1.50 1.56 1.72 1.80 1.81 1.90 1.94 2.25 2.59 2.75 2.79 2.76 2.60 2.48 2.47 2.46 2.46 2.46
5.11 4.97 4.91 4.73 4.54 4.27 4.03 3.76 3.66 3.59 3.69 3.52 3.45 3.28 3.02 2.66 2.40 2.04 1.71 1.50 1.43 1.44 1.49 1.49 1.47 1.48 1.52 1.62 1.74 1.72 1.68 1.61 1.75 2.01 2.22 2.31 2.37 2.36 2.35 2.35 2.37 2.42 2.48
4.35 4.12 4.04 3.93 3.78 3.60 3.43 3.35 3.35 3.31 3.28 3.13 2.98 2.94 2.93 2.85 2.55 2.24 1.93 1.67 1.58 1.50 1.48 1.49 1.58 1.59 1.59 1.61 1.60 1.57 1.56 1.47 1.49 1.64 1.77 1.84 1.96 2.10 2.18 2.17 2.16 2.24 2.38
3.71 3.35 3.19 3.10 2.97 2.86 2.85 2.88 2.92 2.90 2.90 2.87 2.79 2.67 2.58 2.57 2.42 2.32 2.07 1.84 1.82 1.69 1.58 1.52 1.48 1.53 1.59 1.59 1.57 1.69 1.44 1.30 1.27 1.31 1.45 1.57 1.67 1.79 1.90 2.01 2.14 2.23 2.33
3.10 2.80 2.61 2.55 2.45 2.39 2.40 2.52 2.61 2.55 2.51 2.54 2.52 2.43 2.38 2.31 2.24 2.22 2.27 2.11 1.84 1.61 1.55 1.50 1.39 1.38 1.41 1.53 1.62 1.68 1.37 1.22 1.20 1.25 1.30 1.34 1.42 1.52 1.61 1.69 1.85 2.02 2.10
2.51 2.32 2.20 2.12 2.03 1.95 1.94 2.07 2.19 2.26 2.23 2.26 2.27 2.34 2.27 2.16 2.10 2.04 2.10 2.19 2.10 1.88 1.70 1.59 1.51 1.48 1.49 1.52 1.65 1.65 1.40 1.42 1.29 1.29 1.29 1.25 1.27 1.28 1.31 1.32 1.35 1.48 1.62
1.93 1.79 1.75 1.71 1.65 1.62 1.68 1.82 1.89 1.86 1.88 1.94 2.04 2.15 2.14 2.12 2.10 2.03 2.09 2.17 2.24 2.17 1.96 1.75 1.69 1.62 1.64 1.65 1.77 1.43 1.45 1.63 1.44 1.33 1.24 1.19 1.19 1.13 1.08 1.06 1.03 1.03 1.07
1.61 1.52 1.48 1.47 1.46 1.44 1.48 1.54 1.65 1.68 1.65 1.66 1.78 1.92 2.00 2.02 2.12 2.15 2.23 2.27 2.27 2.27 2.17 1.87 1.76 1.69 1.68 1.61 1.85 1.58 1.56 1.63 1.42 1.25 1.13 1.04 1.01 0.97 0.93 0.93 0.95 0.95 0.94
1.67 1.55 1.44 1.46 1.46 1.42 1.40 1.44 1.43 1.48 1.55 1.57 1.61 1.70 1.80 1.83 1.93 1.98 2.04 2.07 2.16 2.20 2.18 1.97 1.83 1.79 1.76 1.74 1.77 1.61 1.51 1.44 1.34 1.23 1.07 0.98 0.94 0.90 0.89 0.89 0.90 0.90 0.90
1.40 1.34 1.31 1.35 1.33 1.25 1.24 1.22 1.16 1.20 1.28 1.39 1.47 1.51 1.59 1.60 1.65 1.65 1.75 1.81 1.84 1.90 1.95 2.00 2.02 1.95 1.87 1.82 1.74 1.58 1.35 1.19 1.15 1.14 1.03 0.97 0.95 0.95 0.96 0.97 0.96 0.93 0.88
1.35 1.34 1.30 1.27 1.24 1.16 1.08 1.03 1.03 1.03 1.02 1.11 1.22 1.27 1.33 1.33 1.31 1.30 1.37 1.39 1.48 1.58 1.77 1.86 1.88 1.94 1.91 1.90 1.92 1.65 1.44 1.39 1.08 1.02 0.96 0.96 0.95 0.93 0.92 0.90 0.87 0.85 0.82
1.28 1.33 1.27 1.18 1.08 1.01 0.96 0.98 1.01 0.99 0.95 0.97 1.01 1.06 1.08 1.03 1.01 1.03 1.06 1.12 1.25 1.49 1.66 1.72 1.66 1.69 1.77 1.74 1.87 1.76 1.62 1.48 1.27 0.95 0.89 0.82 0.83 0.84 0.83 0.78 0.75 0.73 0.73
1.14 1.20 1.11 1.05 0.98 0.89 0.83 0.85 0.89 0.89 0.88 0.88 0.90 0.92 0.89 0.86 0.88 0.87 0.83 0.93 1.12 1.36 1.48 1.56 1.58 1.54 1.55 1.59 1.63 1.55 1.53 1.52 1.40 1.13 1.03 0.84 0.77 0.80 0.84 0.83 0.79 0.71 0.66
1.16 1.16 1.10 0.99 0.88 0.75 0.78 0.78 0.73 0.76 0.83 0.90 0.88 0.81 0.76 0.74 0.72 0.73 0.74 0.83 0.96 1.08 1.20 1.32 1.38 1.40 1.41 1.43 1.51 1.52 1.52 1.54 1.51 1.28 1.21 1.09 0.90 0.96 0.93 0.85 0.80 0.71 0.69
1.18 1.11 1.00 0.89 0.83 0.78 0.71 0.67 0.71 0.77 0.84 0.91 0.91 0.91 0.77 0.63 0.70 0.74 0.76 0.80 0.86 0.90 0.99 1.15 1.25 1.26 1.31 1.41 1.56 1.56 1.57 1.56 1.50 1.33 1.34 1.32 1.15 1.10 0.89 0.76 0.78 0.71 0.66
1.13 1.08 0.98 0.88 0.80 0.72 0.69 0.67 0.69 0.71 0.81 0.85 0.84 0.86 0.87 0.82 0.78 0.82 0.80 0.82 0.86 0.91 0.97 1.04 1.18 1.21 1.17 1.26 1.45 1.47 1.49 1.46 1.39 1.32 1.36 1.41 1.18 1.08 0.85 0.88 0.82 0.67 0.61
1.07 1.00 0.94 0.89 0.84 0.73 0.68 0.64 0.67 0.74 0.80 0.75 0.68 0.69 0.70 0.70 0.69 0.75 0.81 0.90 0.92 0.92 0.83 0.87 0.92 1.00 1.11 1.17 1.23 1.29 1.41 1.54 1.49 1.37 1.33 1.41 1.29 1.13 0.97 0.99 0.89 0.75 0.68
0.99 0.87 0.85 0.88 0.87 0.81 0.69 0.60 0.63 0.66 0.71 0.68 0.65 0.64 0.63 0.60 0.59 0.57 0.65 0.85 0.98 0.96 0.88 0.88 0.99 1.14 1.21 1.22 1.18 1.26 1.39 1.49 1.47 1.49 1.32 1.34 1.34 1.24 1.18 1.00 0.92 0.90 0.90